FW9333 Weather Reports


time (UTC)temp
C
wind
direction
speed
KPH
gust
KPH
rain 1hr
cm
rain 24hr
cm
rain mn
cm
humidity
%
barometer
mb
20260508023028 10 99 0.0 0.0 0.00 0.00 0.00 68 1013.0
20260508021524 10 99 0.0 0.0 0.00 0.00 0.00 69 1012.9
20260508020023 10 99 0.0 0.0 0.00 0.00 0.00 66 1012.7
20260508014541 10 99 0.0 0.0 0.00 0.00 0.00 66 1012.5
20260508013022 11 99 0.0 0.0 0.00 0.00 0.00 64 1012.3
20260508011522 11 99 0.0 0.0 0.00 0.00 0.00 63 1012.0
20260508010028 11 99 0.0 1.6 0.00 0.00 0.00 63 1011.8
20260508004524 12 99 0.0 1.6 0.00 0.00 0.00 59 1011.5
20260508003042 12 110 0.0 3.2 0.00 0.00 0.00 61 1011.2
20260508001518 12 110 0.0 0.0 0.00 0.00 0.00 59 1011.0
20260508000019 13 110 0.0 3.2 0.00 0.00 0.00 57 1010.7
20260507234517 13 106 0.0 1.6 0.00 0.00 0.00 59 1010.5
20260507233030 13 111 0.0 4.8 0.00 0.00 0.00 57 1010.4
20260507231519 14 142 0.0 6.4 0.00 0.00 0.00 53 1010.2
20260507230017 14 360 0.0 3.2 0.00 0.00 0.00 54 1010.1
20260507224517 14 130 0.0 6.4 0.00 0.00 0.00 53 1010.0
20260507223016 15 113 0.0 3.2 0.00 0.00 0.00 54 1009.9
20260507221515 15 123 0.0 1.6 0.00 0.00 0.00 55 1009.8
20260507220015 15 123 0.0 1.6 0.00 0.00 0.00 57 1009.7
20260507214514 15 123 0.0 4.8 0.00 0.00 0.00 50 1009.5
20260507213014 15 72 0.0 3.2 0.00 0.00 0.00 48 1009.5
20260507211514 16 79 0.0 4.8 0.00 0.00 0.00 49 1009.5
20260507210013 16 74 0.0 8.0 0.00 0.00 0.00 47 1009.4
20260507204512 16 99 0.0 12.9 0.00 0.00 0.00 46 1009.3
20260507203015 16 63 0.0 11.3 0.00 0.00 0.00 50 1009.5
20260507201510 16 86 1.6 11.3 0.00 0.00 0.00 45 1009.7
20260507200010 15 60 1.6 6.4 0.00 0.00 0.00 47 1009.6
20260507194507 15 126 1.6 4.8 0.00 0.00 0.00 51 1010.1
20260507193006 15 136 0.0 4.8 0.00 0.00 0.00 55 1010.2
20260507191509 16 76 0.0 3.2 0.00 0.00 0.00 51 1010.2
20260507190007 15 57 1.6 8.0 0.00 0.00 0.00 49 1010.2
20260507184511 16 186 0.0 8.0 0.00 0.00 0.00 51 1010.4
20260507183004 16 340 1.6 11.3 0.00 0.00 0.00 48 1010.3
20260507181503 16 46 0.0 3.2 0.00 0.00 0.00 54 1010.4
20260507180001 16 223 1.6 8.0 0.00 0.00 0.00 55 1010.4
20260507174600 15 56 0.0 4.8 0.00 0.05 0.00 51 1010.5
20260507173100 15 153 0.0 6.4 0.00 0.05 0.00 52 1010.9
20260507171559 15 33 1.6 4.8 0.00 0.05 0.00 50 1011.1
20260507170056 15 78 0.0 8.0 0.00 0.05 0.00 50 1011.3
20260507164553 15 84 0.0 4.8 0.00 0.05 0.00 56 1011.4
20260507163053 15 96 0.0 3.2 0.00 0.05 0.00 49 1011.5
20260507161550 16 148 0.0 6.4 0.00 0.05 0.00 56 1011.7
20260507160049 16 81 0.0 4.8 0.00 0.05 0.00 53 1011.9
20260507154548 16 92 0.0 6.4 0.00 0.23 0.00 54 1011.9
20260507153044 16 51 0.0 6.4 0.00 0.23 0.00 51 1012.0
20260507151544 15 139 0.0 3.2 0.00 0.23 0.00 60 1012.1
20260507150040 15 86 0.0 4.8 0.00 0.23 0.00 54 1012.3
20260507144539 15 32 0.0 4.8 0.00 0.23 0.00 65 1012.5
20260507143037 14 131 0.0 4.8 0.00 0.23 0.00 57 1012.6
20260507141536 14 9 0.0 4.8 0.00 0.23 0.00 59 1012.8
20260507140040 14 19 0.0 4.8 0.00 0.23 0.00 63 1013.1
20260507134530 13 46 0.0 0.0 0.00 0.23 0.00 66 1013.3
20260507133026 12 107 0.0 0.0 0.00 0.23 0.00 75 1013.4
20260507131533 11 78 0.0 0.0 0.00 0.23 0.00 81 1013.6
20260507130020 10 78 0.0 0.0 0.00 0.23 0.00 85 1013.4
20260507124520 8 103 0.0 0.0 0.00 0.28 0.00 88 1013.4
20260507123023 8 313 0.0 0.0 0.00 0.28 0.00 90 1013.5
20260507121518 7 313 0.0 0.0 0.00 0.28 0.00 90 1013.5
20260507120016 7 313 0.0 0.0 0.00 0.28 0.00 90 1013.5
20260507114515 6 313 0.0 0.0 0.00 0.30 0.00 89 1013.3
20260507113014 6 313 0.0 0.0 0.00 0.30 0.00 90 1013.2
20260507111513 6 313 0.0 0.0 0.00 0.30 0.00 89 1013.0
20260507110013 6 313 0.0 0.0 0.00 0.30 0.00 89 1012.9
20260507104510 6 131 0.0 0.0 0.00 0.61 0.00 89 1012.8
20260507103010 6 131 0.0 0.0 0.00 0.61 0.00 89 1012.7
20260507101509 6 131 0.0 0.0 0.00 0.61 0.00 88 1012.8
20260507100015 6 131 0.0 0.0 0.00 0.61 0.00 88 1012.7
20260507094502 7 131 0.0 0.0 0.00 1.12 0.00 88 1012.6
20260507093100 7 131 0.0 0.0 0.00 1.12 0.00 88 1012.5
20260507091605 7 131 0.0 0.0 0.00 1.12 0.00 87 1012.5
20260507090112 7 131 0.0 0.0 0.00 1.12 0.00 87 1012.5
20260507084557 7 131 0.0 0.0 0.00 1.14 0.00 86 1012.5
20260507083100 8 131 0.0 0.0 0.00 1.14 0.00 86 1012.5
20260507081557 8 131 0.0 0.0 0.00 1.14 0.00 86 1012.4
20260507080054 8 131 0.0 0.0 0.00 1.14 0.00 87 1012.5
20260507074551 8 131 0.0 0.0 0.00 1.14 0.00 87 1012.4
20260507073100 8 131 0.0 0.0 0.00 1.14 0.00 87 1012.3
20260507071548 8 131 0.0 0.0 0.00 1.14 0.00 88 1012.2
20260507070126 8 131 0.0 0.0 0.00 1.14 0.00 88 1012.1
20260507064550 8 131 0.0 0.0 0.00 1.14 0.00 88 1012.2
20260507063046 9 131 0.0 0.0 0.00 1.14 0.00 88 1012.3
20260507061544 9 131 0.0 0.0 0.00 1.14 0.00 89 1012.1
20260507060042 9 131 0.0 0.0 0.00 1.14 0.00 89 1012.1
20260507054546 10 131 0.0 0.0 0.00 1.14 0.00 89 1012.3
20260507053042 10 131 0.0 0.0 0.00 1.14 0.00 90 1012.4
20260507051537 10 131 0.0 0.0 0.00 1.14 0.00 90 1012.6
20260507050035 10 131 0.0 0.0 0.00 1.14 0.00 90 1012.6
20260507044544 10 131 0.0 0.0 0.00 1.14 0.00 90 1012.5
20260507043037 11 131 0.0 0.0 0.00 1.14 0.00 90 1012.4
20260507041529 11 131 0.0 0.0 0.00 1.14 0.00 91 1012.3
20260507040027 11 131 0.0 0.0 0.00 1.14 0.00 90 1012.3
20260507034527 11 131 0.0 0.0 0.00 1.14 1.14 91 1012.1
20260507033026 11 131 0.0 0.0 0.00 1.14 1.14 91 1012.2
20260507031525 11 131 0.0 0.0 0.00 1.14 1.14 91 1012.6
20260507030023 11 131 0.0 0.0 0.00 1.14 1.14 91 1012.4
20260507024521 11 131 0.0 0.0 0.00 1.14 1.14 91 1012.1